When you browse on this site, cookies collect data to enhance your experience and personalize the content and advertising you see.
Visit our Privacy Policy to learn more. By continuing to use the site, you agree to this use of cookies and data.
  • In Hungary
  • List of Countries
  • For 7 days
  • Water Temperature
  • Weather Map
  • News
  • Weather Widgets
  • user-avatar
    Login

    Hourly Weather Ardatov

    Today, 15 October, Tuesday

    Time Temperature Precipitation Wind Pressure Humidity
    00:00 +7°C° 1.1 mm 5 mps 743 mmHg 96%
    01:00 +9°C° 0.6 mm 6 mps 742 mmHg 94%
    02:00 +10°C° 0.6 mm 6 mps 741 mmHg 93%
    03:00 +12°C° 0.6 mm 7 mps 740 mmHg 92%
    04:00 +12°C° 0.2 mm 7 mps 740 mmHg 92%
    05:00 +12°C° 0.2 mm 7 mps 740 mmHg 91%
    06:00 +12°C° 0.2 mm 7 mps 739 mmHg 91%
    07:00 +12°C° 0.2 mm 7 mps 740 mmHg 89%
    08:00 +13°C° 0.2 mm 6 mps 740 mmHg 87%
    09:00 +13°C° 0.2 mm 6 mps 740 mmHg 85%
    10:00 +12°C° 0.3 mm 7 mps 741 mmHg 82%
    11:00 +12°C° 0.3 mm 7 mps 741 mmHg 78%
    12:00 +12°C° 0.3 mm 7 mps 742 mmHg 75%
    13:00 +11°C° 0.2 mm 7 mps 743 mmHg 77%
    14:00 +10°C° 0.2 mm 7 mps 744 mmHg 79%
    15:00 +9°C° 0.2 mm 7 mps 745 mmHg 81%
    16:00 +8°C° 0 mm 6 mps 746 mmHg 82%
    17:00 +7°C° 0 mm 5 mps 746 mmHg 82%
    18:00 +6°C° 0 mm 5 mps 747 mmHg 83%
    19:00 +6°C° 0 mm 5 mps 748 mmHg 81%
    20:00 +6°C° 0 mm 5 mps 749 mmHg 79%
    21:00 +5°C° 0 mm 5 mps 750 mmHg 77%
    22:00 +3°C° 0 mm 5 mps 750 mmHg 77%
    23:00 +2°C° 0 mm 5 mps 751 mmHg 77%

    Tomorrow, 16 October, Wednesday

    Time Temperature Precipitation Wind Pressure Humidity
    00:00 +1°C° 0 mm 5 mps 751 mmHg 76%
    01:00 +1°C° 0 mm 5 mps 752 mmHg 74%
    02:00 +1°C° 0 mm 5 mps 753 mmHg 73%
    03:00 +1°C° 0 mm 5 mps 753 mmHg 71%
    04:00 0°C° 0 mm 4 mps 754 mmHg 74%
    05:00 +1°C° 0 mm 3 mps 754 mmHg 76%
    06:00 0°C° 0 mm 3 mps 754 mmHg 79%
    07:00 0°C° 0 mm 3 mps 755 mmHg 76%
    08:00 +1°C° 0 mm 3 mps 755 mmHg 74%
    09:00 +1°C° 0 mm 3 mps 756 mmHg 72%
    10:00 +2°C° 0 mm 3 mps 756 mmHg 69%
    11:00 +4°C° 0 mm 2 mps 756 mmHg 67%
    12:00 +5°C° 0 mm 2 mps 756 mmHg 64%
    13:00 +5°C° 0 mm 2 mps 756 mmHg 64%
    14:00 +5°C° 0 mm 2 mps 756 mmHg 63%
    15:00 +7°C° 0 mm 1 mps 756 mmHg 62%
    16:00 +6°C° 0 mm 1 mps 756 mmHg 66%
    17:00 +4°C° 0 mm 0 mps 756 mmHg 70%
    18:00 +3°C° 0 mm 0 mps 756 mmHg 74%
    19:00 +3°C° 0 mm 0 mps 756 mmHg 75%
    20:00 +4°C° 0 mm 1 mps 756 mmHg 76%
    21:00 +4°C° 0 mm 1 mps 756 mmHg 77%
    22:00 +3°C° 0 mm 2 mps 756 mmHg 76%
    23:00 +3°C° 0 mm 2 mps 756 mmHg 75%

    Day after tomorrow, 17 October, Thursday

    Time Temperature Precipitation Wind Pressure Humidity
    00:00 +3°C° 0 mm 3 mps 755 mmHg 74%
    01:00 +3°C° 0 mm 3 mps 755 mmHg 74%
    02:00 +3°C° 0 mm 3 mps 755 mmHg 73%
    03:00 +3°C° 0 mm 3 mps 755 mmHg 73%
    04:00 +3°C° 0 mm 4 mps 754 mmHg 72%
    05:00 +3°C° 0 mm 4 mps 754 mmHg 72%
    06:00 +2°C° 0 mm 5 mps 753 mmHg 71%
    07:00 +2°C° 0 mm 6 mps 753 mmHg 70%
    08:00 +3°C° 0 mm 6 mps 752 mmHg 68%
    09:00 +4°C° 0 mm 7 mps 751 mmHg 66%
    10:00 +5°C° 0 mm 7 mps 751 mmHg 66%
    11:00 +6°C° 0 mm 8 mps 750 mmHg 65%
    12:00 +7°C° 0 mm 8 mps 750 mmHg 64%
    13:00 +9°C° 0 mm 8 mps 749 mmHg 65%
    14:00 +9°C° 0 mm 8 mps 749 mmHg 65%
    15:00 +9°C° 0 mm 8 mps 748 mmHg 66%
    16:00 +9°C° 0 mm 8 mps 748 mmHg 68%
    17:00 +7°C° 0 mm 8 mps 747 mmHg 70%
    18:00 +7°C° 0 mm 8 mps 747 mmHg 72%
    19:00 +8°C° 0 mm 7 mps 747 mmHg 75%
    20:00 +8°C° 0 mm 7 mps 747 mmHg 78%
    21:00 +9°C° 0 mm 7 mps 747 mmHg 81%
    22:00 +9°C° 0.3 mm 6 mps 746 mmHg 85%
    23:00 +9°C° 0.3 mm 5 mps 746 mmHg 88%

    18 October, Friday

    Time Temperature Precipitation Wind Pressure Humidity
    00:00 +9°C° 0.3 mm 5 mps 746 mmHg 92%
    01:00 +10°C° 0 mm 4 mps 746 mmHg 93%
    02:00 +10°C° 0 mm 4 mps 747 mmHg 95%
    03:00 +10°C° 0 mm 3 mps 747 mmHg 96%
    04:00 +7°C° 0 mm 4 mps 747 mmHg 92%
    05:00 +6°C° 0 mm 4 mps 748 mmHg 88%
    06:00 +3°C° 0 mm 5 mps 748 mmHg 84%
    07:00 +3°C° 0 mm 5 mps 748 mmHg 81%
    08:00 +2°C° 0 mm 5 mps 749 mmHg 77%
    09:00 +2°C° 0 mm 5 mps 749 mmHg 74%
    10:00 +2°C° 0 mm 5 mps 750 mmHg 71%
    11:00 +3°C° 0 mm 5 mps 751 mmHg 69%
    12:00 +3°C° 0 mm 5 mps 751 mmHg 66%
    13:00 +3°C° 0 mm 5 mps 751 mmHg 66%
    14:00 +3°C° 0 mm 5 mps 752 mmHg 67%
    15:00 +3°C° 0 mm 5 mps 752 mmHg 67%
    16:00 +3°C° 0 mm 4 mps 753 mmHg 71%
    17:00 +3°C° 0 mm 4 mps 753 mmHg 74%
    18:00 +1°C° 0 mm 4 mps 754 mmHg 78%
    19:00 0°C° 0 mm 4 mps 754 mmHg 79%
    20:00 0°C° 0 mm 4 mps 755 mmHg 81%
    21:00 -1°C° 0 mm 4 mps 755 mmHg 82%
    22:00 -2°C° 0 mm 4 mps 755 mmHg 83%
    23:00 -1°C° 0 mm 3 mps 756 mmHg 84%

    19 October, Saturday

    Time Temperature Precipitation Wind Pressure Humidity
    00:00 -2°C° 0 mm 3 mps 756 mmHg 85%
    01:00 -2°C° 0 mm 3 mps 756 mmHg 85%
    02:00 -2°C° 0 mm 3 mps 757 mmHg 85%
    03:00 -2°C° 0 mm 2 mps 757 mmHg 86%
    04:00 -2°C° 0 mm 2 mps 757 mmHg 85%
    05:00 -2°C° 0 mm 2 mps 757 mmHg 85%
    06:00 -2°C° 0 mm 2 mps 758 mmHg 85%
    07:00 -1°C° 0 mm 3 mps 758 mmHg 81%
    08:00 -1°C° 0 mm 3 mps 758 mmHg 77%
    09:00 0°C° 0 mm 3 mps 759 mmHg 73%
    10:00 +1°C° 0 mm 3 mps 759 mmHg 71%
    11:00 +2°C° 0 mm 3 mps 759 mmHg 68%
    12:00 +2°C° 0 mm 3 mps 759 mmHg 66%
    13:00 +2°C° 0 mm 3 mps 759 mmHg 66%
    14:00 +2°C° 0 mm 3 mps 758 mmHg 67%
    15:00 +3°C° 0 mm 3 mps 758 mmHg 67%
    16:00 +3°C° 0 mm 2 mps 758 mmHg 71%
    17:00 +2°C° 0 mm 2 mps 758 mmHg 76%
    18:00 +1°C° 0 mm 2 mps 758 mmHg 80%
    19:00 +1°C° 0 mm 2 mps 758 mmHg 81%
    20:00 -1°C° 0 mm 2 mps 758 mmHg 82%
    21:00 -1°C° 0 mm 2 mps 758 mmHg 83%
    22:00 -1°C° 0 mm 2 mps 758 mmHg 83%
    23:00 -1°C° 0 mm 2 mps 758 mmHg 83%

    20 October, Sunday

    Time Temperature Precipitation Wind Pressure Humidity
    00:00 -1°C° 0 mm 2 mps 758 mmHg 83%
    01:00 -1°C° 0 mm 2 mps 758 mmHg 82%
    02:00 -1°C° 0 mm 2 mps 758 mmHg 81%
    03:00 +2°C° 0 mm 1 mps 758 mmHg 80%
    04:00 +2°C° 0 mm 1 mps 758 mmHg 79%
    05:00 +2°C° 0 mm 1 mps 758 mmHg 79%
    06:00 +2°C° 0 mm 1 mps 758 mmHg 78%
    07:00 +3°C° 0 mm 1 mps 759 mmHg 76%
    08:00 +4°C° 0 mm 1 mps 759 mmHg 74%
    09:00 +4°C° 0 mm 1 mps 759 mmHg 72%
    10:00 +5°C° 0 mm 1 mps 759 mmHg 69%
    11:00 +6°C° 0 mm 1 mps 759 mmHg 66%
    12:00 +6°C° 0 mm 2 mps 759 mmHg 63%
    13:00 +6°C° 0 mm 2 mps 759 mmHg 64%
    14:00 +6°C° 0 mm 2 mps 759 mmHg 66%
    15:00 +6°C° 0 mm 2 mps 759 mmHg 67%
    16:00 +5°C° 0 mm 2 mps 759 mmHg 72%
    17:00 +4°C° 0 mm 2 mps 759 mmHg 78%
    18:00 +4°C° 0 mm 1 mps 759 mmHg 83%
    19:00 +4°C° 0 mm 1 mps 759 mmHg 85%
    20:00 +4°C° 0 mm 1 mps 759 mmHg 87%
    21:00 +4°C° 0 mm 1 mps 760 mmHg 88%
    22:00 +4°C° 0 mm 1 mps 760 mmHg 89%
    23:00 +3°C° 0 mm 1 mps 760 mmHg 90%
    Show more